{"data":{"norad_id":48216,"intl_designator":"2021-031G","name":"ONEWEB-0198","alt_names":[],"object_type":"PAYLOAD","status":"ACTIVE","operator":null,"country":"UK","launch_date":"2021-04-25","launch_site_code":"VOSTO","launch_vehicle":null,"mission":null,"orbit_class":"UNKNOWN","rcs_meters":null,"size_class":null,"mass_kg":null,"dimensions":null,"purposes":["comms"],"wikipedia_slug":null,"has_3d_model":false,"image_url":null,"decayed_at":null,"tle_current":{"epoch":"2026-09-19T18:22:08.114880Z","epoch_age_seconds":85476,"freshness":"FRESH","line1":"1 48216U 21031G   26262.76537170 -.00000029  00000+0 -11316-3 0  9999","line2":"2 48216  87.8884 270.8389 0001504  86.8535 273.2766 13.14502173260916","mean_motion":13.14502173,"eccentricity":0.0001504,"inclination_deg":87.8884,"raan_deg":270.8389,"arg_perigee_deg":86.8535,"mean_anomaly_deg":273.2766,"bstar":-0.00011316,"rev_number":26091,"period_min":109.54717531684,"perigee_km":1204.6521432283,"apogee_km":1206.933389302,"semimajor_km":7583.9297662652,"source":"CELESTRAK","updated_at":"2026-09-20T09:00:44.593351Z"}}}